Weather History for Santa Ynez, CA

Change the Weather History Date:

Friday, June 28, 2013

  Actual Average (KSBA) Record (KSBA)
Temperature  
Mean Temperature 76 °F 64 °F  
Max Temperature 96 °F 72 °F 83 °F (1992)
Min Temperature 57 °F 56 °F 47 °F (1963)
Degree Days  
Heating Degree Days 0 2  
Month to date heating degree days 87  
Since 1 June heating degree days 87  
Since 1 July heating degree days 2371  
Cooling Degree Days 12 1  
Month to date cooling degree days 11  
Year to date cooling degree days 25  
Since 1 June cooling degree days 11  
Growing Degree Days 26 (Base 50)    
Moisture  
Dew Point 53 °F    
Average Humidity 47    
Maximum Humidity 82    
Minimum Humidity 20    
Precipitation  
Precipitation 0.00 in 0.01 in 0.20 in (1991)
Month to date precipitation 0.07  
Year to date precipitation 12.05  
Since 1 July precipitation 17.76  
Sea Level Pressure  
Sea Level Pressure 29.94 in    
Wind  
Wind Speed 4 mph (West)    
Max Wind Speed 17 mph    
Max Gust Speed 17 mph    
Visibility 10 miles    
Events      
T = Trace of Precipitation, MM = Missing Value Source: NWS Daily Summary

Daily Weather History Graph

Daily Weather History Graph

Search for Another Location

Airport:

Trip Planner

Search our weather history database for the weather conditions in past years. The results will help you decide how hot, cold, wet, or windy it might be!

Date:

Astronomy

Jun. 28, 2013 Rise Set
Actual Time 5:50 AM PDT 8:17 PM PDT
Civil Twilight 5:20 AM PDT 8:46 PM PDT
Nautical Twilight 4:44 AM PDT 9:22 PM PDT
Astronomical Twilight 4:04 AM PDT 10:02 PM PDT
Moon No Moon Rise 11:47 AM PDT (6/28)
Length of Visible Light 15h 26m
Length of Day
14h 27m
Waning Gibbous, 65% of the Moon is Illuminated
Jun 28
Waning Gibbous
Jun 29
Last Quarter
Jul 8
New
Jul 15
First Quarter
Jul 22
Full

Hourly Weather History & Observations

Time (PDT) Temp. Heat Index Dew Point Humidity Pressure Visibility Wind Dir Wind Speed Gust Speed Precip Events Conditions
12:15 AM 62.6 °F - 53.6 °F 72% 30.00 in 10.0 mi Calm Calm - N/A   Clear
12:35 AM 62.6 °F - 53.6 °F 72% 30.00 in 10.0 mi Calm Calm - N/A   Clear
12:55 AM 62.6 °F - 53.6 °F 72% 30.00 in 10.0 mi Calm Calm - N/A   Clear
1:15 AM 62.6 °F - 53.6 °F 72% 29.99 in 10.0 mi Calm Calm - N/A   Clear
1:35 AM 62.6 °F - 53.6 °F 72% 29.99 in 10.0 mi Calm Calm - N/A   Clear
1:55 AM 62.6 °F - 53.6 °F 72% 29.98 in 10.0 mi Calm Calm - N/A   Clear
2:15 AM 62.6 °F - 53.6 °F 72% 29.98 in 10.0 mi Calm Calm - N/A   Clear
2:35 AM 62.6 °F - 53.6 °F 72% 29.97 in 10.0 mi Calm Calm - N/A   Clear
2:55 AM 60.8 °F - 51.8 °F 72% 29.98 in 10.0 mi Calm Calm - N/A   Clear
3:15 AM 60.8 °F - 51.8 °F 72% 29.97 in 10.0 mi Calm Calm - N/A   Clear
3:35 AM 60.8 °F - 51.8 °F 72% 29.98 in 10.0 mi Calm Calm - N/A   Clear
3:55 AM 59.0 °F - 53.6 °F 82% 29.98 in 10.0 mi Calm Calm - N/A   Clear
4:15 AM 59.0 °F - 53.6 °F 82% 29.97 in 10.0 mi Calm Calm - N/A   Clear
4:35 AM 59.0 °F - 53.6 °F 82% 29.97 in 10.0 mi Calm Calm - N/A   Clear
5:55 AM 57.2 °F - 51.8 °F 82% 29.98 in 10.0 mi Calm Calm - N/A   Clear
6:15 AM 57.2 °F - 51.8 °F 82% 29.98 in 10.0 mi Calm Calm - N/A   Clear
6:35 AM 59.0 °F - 53.6 °F 82% 29.98 in 10.0 mi Calm Calm - N/A   Clear
6:55 AM 60.8 °F - 53.6 °F 77% 29.98 in 10.0 mi Calm Calm - N/A   Clear
7:15 AM 60.8 °F - 53.6 °F 77% 29.98 in 10.0 mi Calm Calm - N/A   Clear
7:35 AM 64.4 °F - 53.6 °F 68% 29.98 in 10.0 mi West 4.6 mph - N/A   Clear
7:55 AM 66.2 °F - 53.6 °F 64% 29.99 in 10.0 mi Calm Calm - N/A   Clear
8:15 AM 69.8 °F - 53.6 °F 56% 29.99 in 10.0 mi Calm Calm - N/A   Clear
8:35 AM 71.6 °F - 55.4 °F 57% 29.99 in 10.0 mi Calm Calm - N/A   Clear
8:55 AM 73.4 °F - 55.4 °F 53% 29.98 in 10.0 mi Calm Calm - N/A   Clear
9:15 AM 77.0 °F - 55.4 °F 47% 29.98 in 10.0 mi West 3.5 mph - N/A   Clear
9:35 AM 80.6 °F 80.5 °F 55.4 °F 42% 29.98 in 10.0 mi WNW 4.6 mph - N/A   Clear
9:55 AM 82.4 °F 81.7 °F 55.4 °F 39% 29.97 in 10.0 mi West 5.8 mph - N/A   Clear
10:15 AM 86.0 °F 84.2 °F 53.6 °F 33% 29.97 in 10.0 mi WSW 3.5 mph - N/A   Clear
10:35 AM 87.8 °F 85.7 °F 53.6 °F 31% 29.96 in 10.0 mi West 6.9 mph - N/A   Clear
10:55 AM 89.6 °F 87.3 °F 53.6 °F 29% 29.96 in 10.0 mi West 6.9 mph - N/A   Clear
11:15 AM 89.6 °F 87.3 °F 53.6 °F 29% 29.95 in 10.0 mi WSW 4.6 mph - N/A   Clear
11:35 AM 93.2 °F 90.8 °F 53.6 °F 26% 29.95 in 10.0 mi SW 10.4 mph - N/A   Clear
11:55 AM 95.0 °F 92.7 °F 53.6 °F 25% 29.94 in 10.0 mi West 8.1 mph - N/A   Clear
12:15 PM 96.8 °F 95.1 °F 55.4 °F 25% 29.93 in 10.0 mi West 10.4 mph - N/A   Clear
12:35 PM 96.8 °F 94.4 °F 53.6 °F 23% 29.93 in 10.0 mi West 13.8 mph - N/A   Clear
12:55 PM 96.8 °F 94.4 °F 53.6 °F 23% 29.93 in 10.0 mi West 13.8 mph - N/A   Clear
1:15 PM 96.8 °F 94.4 °F 53.6 °F 23% 29.93 in 10.0 mi West 9.2 mph 17.3 mph N/A   Clear
1:35 PM 96.8 °F - 51.8 °F 22% 29.92 in 10.0 mi West 16.1 mph - N/A   Clear
1:55 PM 96.8 °F - 50.0 °F 20% 29.92 in 10.0 mi West 17.3 mph - N/A   Clear
2:15 PM 95.0 °F - 50.0 °F 22% 29.93 in 10.0 mi West 17.3 mph - N/A   Clear
2:35 PM 95.0 °F - 50.0 °F 22% 29.93 in 10.0 mi WNW 15.0 mph - N/A   Clear
2:55 PM 93.2 °F - 48.2 °F 21% 29.93 in 10.0 mi WNW 16.1 mph - N/A   Clear
3:15 PM 91.4 °F - 50.0 °F 24% 29.92 in 10.0 mi West 13.8 mph - N/A   Clear
3:35 PM 91.4 °F - 51.8 °F 26% 29.92 in 10.0 mi West 11.5 mph - N/A   Clear
3:55 PM 93.2 °F - 51.8 °F 24% 29.91 in 10.0 mi West 10.4 mph - N/A   Clear
4:15 PM 93.2 °F - 51.8 °F 24% 29.91 in 10.0 mi West 11.5 mph - N/A   Clear
4:35 PM 93.2 °F - 51.8 °F 24% 29.90 in 10.0 mi WNW 10.4 mph - N/A   Clear
4:55 PM 95.0 °F - 51.8 °F 23% 29.90 in 10.0 mi West 9.2 mph - N/A   Clear
5:15 PM 93.2 °F - 51.8 °F 24% 29.90 in 10.0 mi West 12.7 mph - N/A   Clear
5:35 PM 93.2 °F - 51.8 °F 24% 29.90 in 10.0 mi West 12.7 mph - N/A   Clear
5:55 PM 93.2 °F - 51.8 °F 24% 29.90 in 10.0 mi West 10.4 mph - N/A   Clear
6:15 PM 91.4 °F - 51.8 °F 26% 29.89 in 10.0 mi West 8.1 mph - N/A   Clear
6:35 PM 89.6 °F - 51.8 °F 27% 29.90 in 10.0 mi West 8.1 mph - N/A   Clear
6:55 PM 89.6 °F - 51.8 °F 27% 29.89 in 10.0 mi West 10.4 mph - N/A   Clear
7:15 PM 87.8 °F - 51.8 °F 29% 29.89 in 10.0 mi West 8.1 mph - N/A   Clear
7:35 PM 86.0 °F - 51.8 °F 31% 29.89 in 10.0 mi WSW 8.1 mph - N/A   Clear
7:55 PM 86.0 °F - 51.8 °F 31% 29.90 in 10.0 mi West 8.1 mph - N/A   Clear
8:15 PM 82.4 °F - 51.8 °F 35% 29.90 in 10.0 mi West 8.1 mph - N/A   Clear
8:35 PM 78.8 °F - 51.8 °F 39% 29.90 in 10.0 mi West 6.9 mph - N/A   Clear
8:55 PM 75.2 °F - 51.8 °F 44% 29.90 in 10.0 mi West 5.8 mph - N/A   Clear
9:15 PM 73.4 °F - 51.8 °F 47% 29.91 in 10.0 mi WSW 8.1 mph - N/A   Clear
9:35 PM 71.6 °F - 51.8 °F 50% 29.92 in 10.0 mi WSW 4.6 mph - N/A   Clear
9:55 PM 69.8 °F - 51.8 °F 53% 29.92 in 10.0 mi Calm Calm - N/A   Clear
10:15 PM 69.8 °F - 51.8 °F 53% 29.92 in 10.0 mi West 5.8 mph - N/A   Clear
10:35 PM 68.0 °F - 51.8 °F 56% 29.92 in 10.0 mi Calm Calm - N/A   Clear
10:55 PM 68.0 °F - 51.8 °F 56% 29.91 in 10.0 mi Calm Calm - N/A   Clear
11:15 PM 66.2 °F - 51.8 °F 60% 29.91 in 10.0 mi Calm Calm - N/A   Clear
11:35 PM 64.4 °F - 51.8 °F 64% 29.91 in 10.0 mi Calm Calm - N/A   Clear
11:55 PM 64.4 °F - 51.8 °F 64% 29.90 in 10.0 mi Calm Calm - N/A   Clear